Flughafen Wetterinformationen

LTBA 220350Z 02005KT 9999 FEW040 14/06 Q1024 NOSIG

VATSIM Feed

Card image cap

ATC Buchungen

Es wurde keine Position gebucht

Card image cap

Aktive Flugsicherung

Derzeit sind keine Fluglotsen Online

Blog

Read our latest news and get to know us better.